Theta_e
338 341 339 340 341 340 341 341 342 342 341 340 340 342 342 340 339 339 336 334 333 335 334 334 335 332 331 331 331 331 335 335 332 331 333 334 334 334 334 333 334 335 336
337 341 340 340 341 339 340 339 340 341 340 340 340 341 340 339 340 339 335 331 331 331 332 333 332 331 330 333 333 332 333 329 325 324 328 330 331 332 332 331 331 332 331
337 340 343 344 341 340 340 337 337 339 340 339 339 340 340 339 340 337 334 331 330 329 331 332 333 329 334 336 334 332 332 333 328 327 325 326 328 330 329 326 329 330 330
338 340 343 344 341 339 339 337 336 336 337 338 339 338 337 336 335 334 333 332 330 329 329 331 331 329 331 331 331 333 330 327 326 324 327 327 326 328 330 333 334 333 333
340 340 341 342 341 338 337 337 335 336 335 337 338 336 335 335 333 333 332 331 329 328 329 331 330 329 329 330 330 328 327 326 325 325 327 330 332 333 336 333 330 330 333
340 339 340 341 341 338 337 335 335 336 337 337 333 335 334 334 333 332 331 330 328 328 328 329 328 329 328 329 329 327 325 325 324 327 332 334 334 334 332 329 327 331 333
339 338 340 341 341 339 338 336 336 335 335 335 334 334 334 333 332 331 330 329 328 327 328 328 329 328 326 329 329 324 322 324 329 331 330 331 331 329 329 329 328 330 333
339 337 339 340 340 338 335 336 334 336 333 335 335 333 333 332 331 330 329 328 328 327 327 328 327 328 329 329 326 323 323 327 330 328 326 325 326 326 326 324 326 329 332
339 338 339 338 340 340 337 335 336 336 335 337 336 333 332 332 330 329 328 328 327 326 326 327 326 327 329 326 322 322 324 329 327 324 325 327 326 326 324 324 325 325 327
340 339 338 339 339 340 339 338 336 334 334 338 335 334 332 331 329 328 326 327 327 326 325 326 326 327 326 324 323 326 328 327 324 324 322 324 324 326 324 322 324 324 323
339 339 338 338 338 338 338 339 337 336 335 338 336 333 331 330 328 327 325 326 326 325 324 325 325 328 325 323 326 327 326 324 323 323 323 323 325 325 325 322 323 322 321
331 334 338 337 337 337 337 337 337 336 336 338 337 334 331 329 327 325 325 325 324 325 323 325 323 327 324 326 327 328 324 323 323 322 323 324 325 324 321 322 320 321 321
317 318 326 338 337 337 337 336 337 336 336 336 337 335 331 329 327 323 325 324 324 323 324 327 325 326 323 324 328 326 323 322 322 322 322 322 326 322 320 321 321 321 319
319 317 317 321 338 338 338 337 337 337 336 336 337 335 332 329 327 321 324 324 323 322 326 326 324 324 323 325 327 325 323 322 322 322 320 320 322 324 321 320 320 320 319
316 317 318 320 326 337 339 338 338 337 337 336 337 336 333 330 326 321 324 324 323 322 326 326 324 324 325 326 326 324 322 321 321 320 320 320 324 321 320 322 320 320 319
314 314 315 320 323 332 338 339 337 337 337 336 336 336 334 330 327 321 323 324 323 321 324 325 324 324 325 325 325 324 322 321 320 319 319 319 321 319 321 321 319 319 319
314 314 315 317 322 325 334 337 337 337 336 336 336 335 334 331 327 321 323 323 322 321 322 324 324 323 324 325 324 323 321 320 319 318 318 319 318 318 319 320 320 319 319
313 313 315 316 318 321 328 333 336 336 336 335 334 335 333 330 329 322 322 322 322 321 323 323 323 322 325 326 324 322 320 319 319 318 318 317 318 318 319 318 318 319 318
312 313 313 314 316 320 326 331 333 334 335 334 332 333 332 329 326 323 322 322 322 321 322 323 322 323 325 324 323 322 320 319 319 318 319 318 317 317 317 317 317 317 316
311 312 313 314 317 320 326 328 329 330 332 331 330 331 331 328 327 322 322 322 321 321 322 323 323 323 324 323 321 321 320 319 319 317 317 316 316 317 317 315 315 314 316
307 309 311 314 319 321 322 323 323 324 326 326 327 328 327 327 326 323 322 322 321 320 321 322 322 322 322 320 319 319 319 318 317 317 315 314 315 315 316 316 315 314 314
308 309 312 315 318 320 321 323 323 323 323 324 323 323 324 324 325 323 322 321 321 319 320 320 321 322 320 321 321 316 316 315 316 316 316 315 315 314 313 313 314 314 314
310 310 312 314 316 318 319 320 321 321 318 318 319 320 320 321 322 323 322 320 320 320 319 318 320 320 320 320 319 319 315 319 313 315 315 315 315 314 312 310 308 311 313
312 312 314 316 316 318 319 318 319 319 317 317 317 317 319 320 320 321 322 319 319 320 318 319 319 319 320 319 318 318 318 315 319 315 312 314 314 314 312 309 306 306 305
314 314 314 316 316 316 317 318 317 317 316 315 316 316 317 318 319 319 321 319 318 318 319 316 317 320 320 320 318 313 313 313 313 312 314 310 311 313 313 310 308 308 308
315 315 315 316 316 316 316 316 317 316 316 316 317 317 316 317 318 319 319 317 315 316 315 318 316 317 319 318 318 317 314 313 310 310 309 307 310 310 312 311 310 310 310
Wind_Speed
14 24 22 22 21 20 20 22 23 23 23 21 20 20 19 17 17 18 16 13 13 13 13 13 13 13 13 12 13 14 14 17 17 17 18 20 19 17 18 21 21 20 20
21 25 22 22 23 21 21 23 23 23 22 21 19 19 18 17 18 18 15 12 11 12 12 13 14 13 13 15 15 15 15 16 16 18 18 19 19 17 17 17 18 16 17
24 25 20 24 23 22 21 22 23 23 22 20 19 19 18 18 17 15 14 12 10 11 12 13 14 13 14 17 18 17 17 22 23 21 18 15 13 15 15 13 17 19 18
22 25 21 24 24 22 21 21 23 22 21 20 20 20 19 17 16 13 12 13 12 11 12 13 14 15 15 15 17 18 20 20 20 18 18 17 19 18 20 19 20 20 17
21 25 24 24 23 21 21 20 23 20 22 22 23 21 18 16 14 12 13 13 14 13 12 13 14 14 14 15 17 17 18 18 18 21 18 16 18 19 19 21 20 18 18
20 25 24 22 23 22 22 20 20 21 21 22 21 20 17 15 12 13 13 14 15 16 14 13 13 14 12 14 14 16 13 13 20 18 16 23 24 22 21 17 16 16 17
20 23 24 22 23 22 21 20 20 21 22 21 23 20 17 15 15 13 13 14 15 16 15 14 14 12 13 13 13 14 14 20 17 19 23 19 17 19 18 18 17 16 17
18 21 24 22 23 23 22 20 20 22 22 23 23 21 18 15 14 14 13 14 16 16 16 16 14 12 13 15 13 13 19 18 20 20 18 15 15 12 14 14 15 15 20
15 18 23 24 23 23 23 21 20 21 22 23 24 22 21 18 15 15 15 15 15 16 17 18 16 15 15 14 11 18 19 19 19 17 17 16 14 14 14 14 13 13 16
13 15 20 24 24 25 24 24 22 22 22 23 23 23 20 19 17 15 15 16 17 17 19 20 17 18 16 14 18 16 20 20 18 16 15 12 13 13 13 13 13 11 11
14 15 17 22 24 25 25 25 25 23 23 23 23 22 19 20 18 17 16 17 18 16 20 22 19 19 17 16 19 18 20 18 17 15 13 12 14 13 13 13 14 12 12
15 17 19 21 24 25 26 26 25 23 23 26 25 24 20 20 19 16 19 18 17 17 20 20 20 22 19 18 19 17 17 15 11 13 12 11 13 13 11 11 12 13 13
18 16 18 22 24 26 28 27 27 27 25 27 27 25 22 21 19 17 21 18 17 18 19 20 22 25 22 23 21 19 17 15 13 13 10 10 12 12 11 11 12 13 14
21 20 20 22 26 28 28 29 27 30 28 29 29 27 26 25 22 21 23 22 20 22 23 23 24 25 24 24 22 18 17 14 11 12 11 11 13 13 11 10 12 12 12
27 26 25 25 27 28 28 31 31 31 32 32 32 31 29 28 26 24 25 24 23 23 22 22 25 27 26 23 21 19 17 11 12 12 12 10 14 11 11 10 11 12 11
26 27 27 30 28 28 30 31 32 33 33 33 33 33 31 30 28 27 27 26 25 25 24 21 27 27 26 23 22 20 17 12 16 13 12 8 15 9 11 9 9 10 11
31 29 28 32 30 29 31 31 31 33 33 33 35 34 35 32 31 29 30 29 27 25 25 24 26 26 25 25 23 21 18 12 17 15 13 8 9 7 8 9 9 9 9
24 27 30 29 30 30 30 30 31 31 31 31 32 32 37 35 33 33 32 31 29 27 28 26 27 21 24 25 23 22 22 15 18 15 15 12 10 9 9 8 7 7 9
23 25 27 32 35 33 32 30 30 31 31 29 29 31 35 36 35 35 34 33 31 29 30 28 25 25 23 18 22 24 22 20 18 16 15 12 12 9 8 9 9 7 7
22 24 26 29 33 33 32 31 29 29 29 29 29 30 31 34 34 34 32 33 33 32 32 30 27 22 24 21 19 25 23 21 20 16 14 13 11 11 11 11 10 7 7
22 24 29 31 32 28 29 29 26 27 28 26 27 28 29 32 33 33 32 30 31 31 34 31 26 26 23 22 22 20 19 18 18 17 15 13 11 10 12 12 11 11 7
22 24 28 32 33 33 31 34 24 29 29 30 27 26 27 29 32 31 32 34 29 25 28 33 28 23 21 27 14 10 3 5 13 16 16 15 12 11 12 13 13 13 12
17 21 28 33 36 35 32 29 25 25 16 18 23 27 31 32 32 35 36 35 34 31 31 33 26 27 21 25 22 10 3 3 6 11 18 19 17 16 14 13 14 15 15
10 15 21 26 32 32 34 32 32 31 21 29 33 30 27 31 34 37 39 38 38 35 32 35 31 31 26 22 22 14 10 12 4 3 13 21 21 20 17 15 15 14 14
4 10 17 22 24 27 31 31 31 24 25 19 24 27 29 32 36 40 42 42 41 40 34 33 35 30 29 27 22 14 14 12 11 3 3 7 21 24 21 19 17 16 14
3 9 14 19 21 22 25 29 32 30 22 19 22 26 29 30 37 41 45 47 48 42 34 31 41 38 29 26 26 28 21 10 6 4 2 3 10 15 23 22 21 20 18
Wind_Direction
177 168 173 164 160 154 153 149 146 148 148 146 145 143 140 136 131 128 117 111 115 116 120 116 113 107 104 103 105 105 104 104 105 99 99 94 88 84 80 82 77 75 72
169 170 174 170 166 162 157 157 154 151 150 149 150 144 143 139 138 137 127 117 114 115 117 119 117 110 108 108 106 109 104 99 102 104 104 93 92 85 82 86 85 78 73
168 169 171 174 168 165 161 161 162 160 155 155 152 144 142 136 139 139 133 132 122 120 120 120 119 112 116 113 103 106 108 106 99 92 89 94 99 92 85 89 84 83 79
172 171 170 175 171 169 168 166 164 166 161 159 155 150 142 150 149 154 148 135 129 126 128 128 131 124 121 112 111 108 109 105 100 90 96 96 94 98 98 95 93 86 81
170 173 173 180 176 174 175 173 165 166 160 162 155 152 153 153 159 166 146 139 133 130 132 135 134 131 128 120 112 117 110 108 102 101 101 97 99 99 95 92 87 87 75
173 177 176 185 183 180 178 175 172 171 166 165 160 157 162 164 167 166 153 143 138 135 134 139 138 143 142 130 122 125 122 126 118 110 94 92 90 93 87 91 92 85 76
173 178 180 188 186 182 180 181 177 177 174 172 164 161 169 167 166 170 158 149 142 138 138 142 149 148 139 132 133 130 124 129 110 104 100 91 91 89 88 87 95 82 79
175 180 184 189 194 189 186 187 184 185 183 176 171 172 171 173 175 169 159 153 148 144 144 145 149 140 135 139 141 138 138 124 117 105 92 84 98 99 97 94 101 84 80
182 185 189 190 197 196 188 188 193 192 188 182 177 175 170 167 171 167 162 156 154 149 148 148 147 143 139 141 135 140 140 133 114 99 95 95 102 97 101 104 104 95 76
189 195 196 197 199 200 197 195 195 198 194 185 183 182 179 170 169 170 170 162 157 157 153 151 151 146 150 143 135 138 137 125 111 106 100 103 101 102 99 102 111 103 93
195 200 204 204 205 206 207 202 201 203 198 195 188 188 183 178 178 172 171 161 163 162 158 154 158 150 156 150 148 148 138 124 114 108 114 122 105 102 99 98 99 102 96
199 204 208 210 212 211 210 210 210 208 205 196 193 191 196 193 194 183 167 169 167 164 161 159 160 161 159 150 151 153 136 122 115 112 122 118 115 106 105 103 105 100 97
206 212 213 215 216 215 216 212 214 210 207 201 199 198 199 195 192 182 170 172 169 168 163 165 165 162 162 157 155 152 141 126 121 120 128 136 122 118 108 112 105 101 97
219 221 223 222 218 218 219 218 214 211 208 208 203 203 199 195 192 184 178 178 176 175 173 172 171 167 163 161 159 156 151 132 123 126 134 130 145 123 115 111 115 103 104
235 229 227 226 220 219 218 219 216 212 212 213 205 205 203 200 193 187 183 183 183 180 179 175 174 168 163 163 165 163 152 154 143 131 140 149 117 127 120 122 113 106 104
240 235 231 226 222 218 219 219 218 217 217 214 209 207 210 206 199 189 186 185 186 185 180 183 175 170 167 166 163 159 155 164 151 140 148 179 125 129 128 125 119 114 111
245 237 230 223 222 220 219 221 219 221 219 217 214 210 212 210 204 195 189 188 188 187 182 185 177 174 169 167 166 161 155 161 152 149 152 156 129 145 130 126 118 120 109
244 235 223 219 221 222 219 219 217 217 220 220 218 217 215 210 208 197 193 191 190 186 185 184 178 171 170 168 162 164 155 165 158 154 156 157 157 153 139 131 127 122 112
246 238 230 225 223 218 216 217 214 212 212 214 217 218 219 214 208 201 195 195 187 188 186 187 179 176 170 168 165 164 162 162 165 164 169 170 174 173 164 158 142 138 133
251 242 234 224 217 212 210 211 204 206 205 210 213 214 218 216 209 202 194 195 189 187 186 188 182 176 173 169 159 163 166 168 170 173 179 181 183 187 185 175 163 157 148
252 239 227 215 207 194 193 189 190 192 195 195 204 210 212 214 213 204 193 195 197 189 187 188 179 172 167 166 147 148 159 171 177 182 187 194 201 201 204 204 193 182 167
243 229 220 209 198 194 191 195 193 197 199 201 203 206 208 211 213 204 201 197 199 194 188 190 183 169 176 175 162 137 138 162 198 196 196 203 216 219 215 218 210 205 193
231 220 211 205 204 200 195 185 190 194 195 191 201 204 208 211 211 206 203 191 194 205 200 196 187 181 178 183 179 165 147 175 143 207 209 212 217 231 228 224 221 209 207
240 221 209 202 201 196 196 189 191 190 184 203 205 206 198 200 206 203 204 197 192 198 199 205 202 198 184 188 181 188 192 150 164 179 218 217 219 227 231 226 220 218 217
190 195 197 197 192 194 199 199 196 199 206 202 200 207 203 203 207 203 205 195 193 194 192 207 210 198 194 190 187 182 155 138 136 137 171 198 221 220 226 227 224 223 219
105 165 177 184 188 196 202 206 207 209 207 199 197 201 206 205 205 203 202 200 199 197 195 203 216 209 199 197 197 201 181 177 167 152 144 189 207 221 222 226 225 225 224